Location: Gönnheim
(49.4488°N, 8.2383°E)
Time: 23:31:10
(UTC+00:00)

Ariane Rocket - Pass Details

Date: 19 May 2025
Orbit: 755 x 764 km, 98.5° (Epoch: 21 June)

Event Time Altitude Azimuth Distance (km) Brightness Sun altitude
Exits shadow 21:17:05 17° 185° (S) 1,850 4.5 -15.1°
Maximum altitude 21:20:52 55° 259° (W) 913 3.5 -15.4°
Drops below altitude 10° 21:25:52 10° 338° (NNW) 2,311 6.8 -15.8°
Sets 21:28:14 0° 343° (NNW) 3,243 7.9 -16.0°
